Location: Bay Harbour
(38.2612°N, 75.2555°W)
Time: 13:01:46
(UTC+00:00)

Daily predictions for brighter satellites

Satellite Brightness Start Highest point End
(mag) Time Altitude Azimuth Time Altitude Azimuth Time Altitude Azimuth
Atlas Centaur 2 3.8 22:21:13 10° WSW 22:28:39 44° SSE 22:36:37 10° E
NOAA 11 4.5 22:24:29 10° SE 22:29:38 45° ENE 22:34:47 10° N
YAOGAN 6 3.0 22:26:41 10° S 22:30:18 71° W 22:33:59 10° NNW
Cosmos 1315 Rocket 4.4 22:28:13 10° SE 22:30:36 16° E 22:33:02 10° NE
Cosmos 1606 Rocket 4.0 22:30:33 10° SSW 22:34:53 68° W 22:39:17 10° N
Aureole 3 2.9 22:33:16 10° S 22:36:21 48° E 22:39:13 10° NNE
Meteor 2-21 Rocket 4.4 22:30:53 10° N 22:37:04 79° E 22:43:09 10° S
CORIOLIS 4.1 22:32:32 10° SSE 22:37:52 80° ENE 22:43:14 10° N
Cosmos 1980 Rocket 3.5 22:36:02 10° SE 22:39:52 19° E 22:43:40 10° ENE
Cosmos 1455 3.6 22:37:27 10° SE 22:40:06 18° E 22:42:46 10° NE
CZ-2C R/B 4.3 22:40:25 10° ESE 22:44:49 23° ENE 22:49:08 10° NNE
Cosmos 2297 Rocket 2.3 22:40:12 10° NNW 22:45:45 53° ENE 22:51:14 10° SE
In-Cosmos 22 Rocket 4.3 22:42:29 10° N 22:47:43 48° ENE 22:53:01 10° SSE
USA 306 4.4 22:47:12 10° NNW 22:50:27 20° NNE 22:52:56 13° ENE
SKYMED 2 3.7 22:46:13 10° NNE 22:50:27 50° E 22:54:40 10° S
Okean-O 3.5 22:52:32 10° SE 22:56:19 29° ENE 23:00:07 10° N
Meteor 2-10 Rocket 3.8 22:51:32 10° SSE 22:56:35 46° E 23:01:29 10° NNE
Timation 2 Rocket 4.3 22:50:32 10° NNW 22:57:14 81° WSW 23:04:05 10° SSE
SMAP 4.3 22:56:02 10° S 23:00:29 47° W 23:04:59 10° NNW
Cosmos 1553 Rocket 4.0 22:54:55 10° S 23:01:14 71° E 23:07:28 10° NNE
FengYun 1-2 T 4.4 22:56:52 10° SSE 23:02:31 82° WSW 23:08:11 10° NNW
Meteor 2-15 4.5 22:57:04 10° S 23:03:03 57° E 23:09:03 10° NNE
Cosmos 2360 4.5 22:58:09 10° S 23:03:35 47° ESE 23:09:02 10° NE
Cosmos 1689 Rocket 1.9 23:00:43 10° NNE 23:03:35 66° E 23:06:26 10° S
Cosmos 1408 3.4 23:00:38 10° NNE 23:03:52 29° ENE 23:07:06 10° SE
H-2A R/B 3.2 22:59:53 10° ESE 23:04:01 23° ENE 23:08:11 10° NNE
MOS 1 Rocket 4.2 23:05:01 10° NE 23:09:11 28° E 23:13:32 10° SSE
Cosmos 44 Rocket 3.3 23:07:38 10° SSW 23:12:14 54° ESE 23:16:15 14° NE
Cosmos 2058 Rocket 4.0 23:08:59 10° SSW 23:13:21 53° W 23:17:47 10° N
Cosmos 2278 4.1 23:08:18 10° S 23:13:33 40° ESE 23:18:43 10° NE
Cosmos 2219 3.4 23:13:56 10° NNW 23:19:42 76° WSW 23:25:25 10° SSE
Cosmos 1939 Rocket 2.8 23:18:13 10° S 23:22:11 82° WSW 23:26:07 10° NNW
ARGOS 4.1 23:21:55 24° ENE 23:22:30 24° ENE 23:26:47 10° NNE
Cosmos 1892 2.6 23:18:43 10° N 23:22:37 87° E 23:26:29 10° S
SL-08 R/B 4.4 23:19:15 10° N 23:25:25 88° W 23:31:31 10° S
Cosmos 1076 Rocket 3.7 23:21:44 10° N 23:25:48 43° E 23:29:52 10° SSE
Cosmos 968 Rocket 3.4 23:21:16 10° NNW 23:26:30 84° ENE 23:31:38 10° SSE
Cosmos 2082 3.8 23:21:12 10° NNW 23:26:49 52° ENE 23:31:56 12° SE
CZ-4B R/B 4.3 23:25:42 10° NNW 23:27:51 17° WNW 23:29:56 10° WSW
NOSS 3-3 (A) 4.2 23:25:51 10° SW 23:31:32 67° NW 23:37:55 10° NNE
NOSS 3-3 (C) 4.1 23:25:57 10° SW 23:31:39 68° NW 23:38:02 10° NNE
Cosmos 1745 Rocket 3.9 23:26:00 10° N 23:32:19 75° E 23:38:40 10° SSE
USA 307 3.5 23:30:40 10° NNW 23:34:38 36° NE 23:35:04 35° NE
IRS-1C Rocket 4.5 23:31:47 10° S 23:37:00 67° WSW 23:42:16 10° NNW
Cosmos 1825 2.4 23:33:53 10° N 23:37:07 46° NE 23:37:07 46° NE
Cosmos 2369 3.8 23:32:19 10° SSW 23:38:01 80° WNW 23:43:46 10° NNE
COSMO-SKYMED 1 3.7 23:34:20 10° N 23:38:27 44° WNW 23:42:34 10° SW
USA 308 3.4 23:35:37 10° NW 23:39:38 39° NE 23:39:51 38° NE
GPS 2-04 Rocket1 3.1 23:36:32 10° WSW 23:40:28 51° S 23:41:13 44° SE
Cosmos 1386 Rocket 4.4 23:34:12 10° N 23:40:37 82° E 23:46:54 10° S
Helios 1A Rocket 3.0 23:36:41 10° S 23:40:48 78° WSW 23:44:55 10° NNW
CSL-04 Rocket 3.8 23:39:13 13° SE 23:44:02 51° ENE 23:49:21 10° N
CZ-2D R/B 3.8 23:41:29 10° S 23:45:14 57° W 23:48:59 10° NNW
OAO 2 Rocket 3.5 23:40:38 10° W 23:45:33 60° S 23:46:58 42° SE
YAOGAN 1 2.4 23:42:29 10° SSE 23:46:48 82° ENE 23:51:09 10° N
ATLAS 2AS CENTAUR R/B 3.7 23:41:40 10° NNW 23:47:50 27° NE 23:48:37 26° NE
Cosmos 2227 Rocket 2.9 23:44:46 10° NNW 23:50:16 54° WSW 23:55:45 10° S
CZ-4 R/B 1.4 23:47:02 10° S 23:50:54 71° WSW 23:54:46 10° NNW
Cosmos 2263 Rocket 3.7 23:47:28 10° N 23:50:16 20° NNE 23:50:16 20° NNE
Cosmos 1812 Rocket 3.7 23:49:12 10° SSW 23:53:35 71° W 23:57:58 10° N
